Location: La Pernelle
(49.6188°N, 1.2999°W)
Time: 01:57:43
(UTC+00:00)

Cosmos 1378 Rocket - Visible Passes

Search period start: 23 October 2021 00:00
Search period end: 02 November 2021 00:00
Orbit: 602 x 626 km, 82.5° (Epoch: 22 October)

Date Brightness Start Highest point End Pass type
(mag) Time Alt. Az. Time Alt. Az. Time Alt. Az.
23 Oct 6.7 02:37:23 10° E 02:38:00 10° E 02:38:47 10° ENE visible
23 Oct 3.5 04:14:31 72° S 04:14:57 86° ESE 04:19:27 10° N visible
23 Oct 5.4 05:51:38 11° W 05:53:26 13° WNW 05:55:31 10° NNW visible
24 Oct 6.2 02:54:07 17° ENE 02:54:07 17° ENE 02:56:26 10° NE visible
24 Oct 3.7 04:31:13 54° NW 04:31:13 54° NW 04:35:15 10° N visible
25 Oct 5.8 03:10:40 23° NE 03:10:40 23° NE 03:12:55 10° NNE visible
25 Oct 4.5 04:47:46 30° NW 04:47:46 30° NW 04:50:53 10° N visible
26 Oct 5.6 03:27:06 24° NNE 03:27:06 24° NNE 03:29:05 10° NNE visible
26 Oct 5.2 05:04:12 19° NW 05:04:12 19° NW 05:06:18 10° NNW visible
27 Oct 5.6 03:43:26 22° NNE 03:43:26 22° NNE 03:45:02 10° NNE visible
27 Oct 5.6 05:20:31 12° NW 05:20:31 12° NW 05:21:19 10° NNW visible
28 Oct 5.7 03:59:42 18° N 03:59:42 18° N 04:00:51 10° N visible
29 Oct 5.9 04:15:54 13° N 04:15:54 13° N 04:16:31 10° N visible
